This demonstration page uses our WeatherBlox Daily Observations layout. Learn more.

41.55636, -103.73856

Hourly Observations for September 4, 2017

Temp ( °F °C ) Dew Point ( °F °C ) Humidity (%) Winds ( mph kmh ) Pressure ( in mb ) Visibility ( mi km ) Precip ( " mm )
12:53 am 00:53 Cloudy with Haze 57 13.9 41 5 55 55 NW 5 7 30.02 1017 2.5 4.02335 0 0
1:53 am 01:53 Cloudy with Haze 56 13.3 42 5.6 60 60 NNW 7 11 30.01 1016 2.5 4.02335 0 0
2:53 am 02:53 Cloudy with Haze 52 11.1 42 5.6 69 69 NNW 6 9 30.01 1016 2.5 4.02335 0 0
3:53 am 03:53 Cloudy with Haze 51 10.6 40 4.4 66 66 N 7 11 30 1016 2.5 4.02335 0 0
4:53 am 04:53 Cloudy with Haze 51 10.6 42 5.6 71 71 N 3 6 30 1016 2.5 4.02335 0 0
5:42 am 05:42 Cloudy with Haze 48 9 39 4 71 71 VRB 5 7 30.09 1019 3 4.82802 0 0
5:49 am 05:49 Cloudy with Haze 48 9 39 4 71 71 undefined N/A 30.09 1019 2.5 4.02335 0 0
5:53 am 05:53 Cloudy with Haze 48 8.9 40 4.4 74 74 undefined N/A 30.03 1017 2.5 4.02335 0 0
6:39 am 06:39 Cloudy with Haze 50 10 41 5 71 71 N 6 9 30.12 1020 1.5 2.41401 0 0
6:53 am 06:53 Cloudy with Haze 49 9.4 41 5 74 74 NNE 5 7 30.06 1018 2 3.21868 0 0
7:30 am 07:30 Cloudy with Haze 54 12.2 42 5.6 64 64 SSE 5 7 30.09 1019 1.75 2.816345 0 0
7:53 am 07:53 Cloudy with Haze 54 12.2 43 6.1 67 67 S 6 9 30.08 1019 1.75 2.816345 0 0
8:53 am 08:53 Mostly Cloudy with Haze 59 15 43 6.1 56 56 ESE 5 7 30.1 1019 1.75 2.816345 0 0
9:01 am 09:01 Mostly Cloudy with Haze 61 16.1 43 6.1 52 52 ESE 5 7 30.06 1018 2 3.21868 0 0
9:53 am 09:53 Mostly Cloudy with Haze 66 18.9 46 7.8 49 49 SE 6 9 30.11 1020 2.5 4.02335 0 0
10:10 am 10:10 Hazy 68 20 47 8.3 47 47 ESE 8 13 30 1016 3 4.82802 0 0
10:53 am 10:53 Hazy 72 22.2 50 10 46 46 ESE 8 13 30.1 1019 4 6.43736 0 0
11:53 am 11:53 Sunny 78 25.6 45 7.2 31 31 NE 13 20 30.12 1020 10 16.0934 0 0
12:53 pm 12:53 Sunny 77 25 45 7.2 32 32 NE 13 20 30.14 1021 10 16.0934 0 0
1:53 pm 13:53 Sunny 76 24.4 46 7.8 35 35 NE 12 19 30.15 1021 9 14.48406 0 0
2:53 pm 14:53 Sunny 78 25.6 44 6.7 30 30 N 12 19 30.15 1021 10 16.0934 0 0
3:53 pm 15:53 Sunny 76 24.4 44 6.7 32 32 NNE 14 22 30.16 1021 10 16.0934 0 0
4:53 pm 16:53 Sunny 75 23.9 42 5.6 31 31 NNE 13 20 30.17 1022 10 16.0934 0 0
5:53 pm 17:53 Sunny 73 22.8 41 5 32 32 NE 8 13 30.18 1022 10 16.0934 0 0
6:53 pm 18:53 Sunny 68 20 46 7.8 45 45 ESE 6 9 30.19 1022 10 16.0934 0 0
7:53 pm 19:53 Clear 64 17.8 42 5.6 45 45 NE 15 24 30.23 1024 10 16.0934 0 0
8:53 pm 20:53 Clear 59 15 43 6.1 56 56 NE 9 15 30.27 1025 10 16.0934 0 0
9:53 pm 21:53 Mostly Cloudy 59 15 41 5 51 51 WSW 6 9 30.28 1025 10 16.0934 0 0
10:53 pm 22:53 Mostly Cloudy 55 12.8 41 5 59 59 NW 5 7 30.29 1026 10 16.0934 0 0
11:53 pm 23:53 Cloudy 56 13.3 43 6.1 62 62 NW 6 9 30.28 1025 10 16.0934 0 0

Powered by AerisWeather